Location: Newark
(59.8814°N, 10.8258°E)
Time: 01:10:21
(UTC+00:00)

Envisat - Pass Details

Date: 28 January 2020
Orbit: 764 x 766 km, 98.1° (Epoch: 25 February)

Event Time Altitude Azimuth Distance (km) Brightness Sun altitude
Rises 04:16:31 0° 24° (NNE) 3,249 6.6 -24.9°
Reaches altitude 10° 04:20:14 10° 52° (NE) 2,316 6.2 -24.5°
Maximum altitude 04:22:34 13° 79° (E) 2,103 6.3 -24.2°
Drops below altitude 10° 04:24:54 10° 107° (ESE) 2,308 6.4 -23.9°
Sets 04:28:34 0° 134° (SE) 3,228 6.8 -23.4°
